When you browse on this site, cookies collect data to enhance your experience and personalize the content and advertising you see.
Visit our Privacy Policy to learn more. By continuing to use the site, you agree to this use of cookies and data.
  • în România
  • Lista ţărilor
  • Pe 7 zile
  • Temperatura apei
  • Meteo pe hartă
  • Widget-uri
  • user-avatar
    Intrare

    Meteo pe oră la Słupsk

    Astăzi, 24 August, Sâmbătă

    Timp Temperatura Precipitaţii Vânt Presiune Umiditate
    00:00 +19°C° 0 mm 1 m/s 767 mmHg 69%
    01:00 +19°C° 0 mm 1 m/s 767 mmHg 70%
    02:00 +19°C° 0 mm 1 m/s 767 mmHg 70%
    03:00 +17°C° 0 mm 2 m/s 767 mmHg 71%
    04:00 +17°C° 0 mm 2 m/s 767 mmHg 71%
    05:00 +19°C° 0 mm 1 m/s 767 mmHg 69%
    06:00 +20°C° 0 mm 1 m/s 768 mmHg 67%
    07:00 +21°C° 0 mm 1 m/s 768 mmHg 65%
    08:00 +21°C° 0 mm 0 m/s 768 mmHg 59%
    09:00 +23°C° 0 mm 0 m/s 768 mmHg 54%
    10:00 +25°C° 0 mm 0 m/s 768 mmHg 48%
    11:00 +25°C° 0 mm 0 m/s 768 mmHg 45%
    12:00 +28°C° 0 mm 1 m/s 768 mmHg 42%
    13:00 +29°C° 0 mm 1 m/s 768 mmHg 39%
    14:00 +28°C° 0 mm 2 m/s 767 mmHg 41%
    15:00 +28°C° 0 mm 3 m/s 767 mmHg 43%
    16:00 +27°C° 0 mm 4 m/s 767 mmHg 45%
    17:00 +26°C° 0 mm 4 m/s 767 mmHg 52%
    18:00 +23°C° 0 mm 4 m/s 767 mmHg 58%
    19:00 +21°C° 0 mm 4 m/s 767 mmHg 64%
    20:00 +21°C° 0 mm 4 m/s 767 mmHg 66%
    21:00 +20°C° 0 mm 3 m/s 767 mmHg 67%
    22:00 +19°C° 0 mm 3 m/s 767 mmHg 69%
    23:00 +19°C° 0 mm 3 m/s 767 mmHg 70%

    Mâine, 25 August, Duminică

    Timp Temperatura Precipitaţii Vânt Presiune Umiditate
    00:00 +18°C° 0 mm 3 m/s 767 mmHg 72%
    01:00 +18°C° 0 mm 3 m/s 767 mmHg 73%
    02:00 +18°C° 0 mm 3 m/s 767 mmHg 74%
    03:00 +18°C° 0 mm 2 m/s 767 mmHg 75%
    04:00 +17°C° 0 mm 2 m/s 767 mmHg 76%
    05:00 +18°C° 0 mm 3 m/s 767 mmHg 72%
    06:00 +19°C° 0 mm 3 m/s 767 mmHg 69%
    07:00 +21°C° 0 mm 3 m/s 767 mmHg 65%
    08:00 +22°C° 0 mm 3 m/s 767 mmHg 58%
    09:00 +25°C° 0 mm 3 m/s 767 mmHg 51%
    10:00 +27°C° 0 mm 3 m/s 767 mmHg 45%
    11:00 +27°C° 0 mm 4 m/s 767 mmHg 43%
    12:00 +28°C° 0 mm 4 m/s 767 mmHg 41%
    13:00 +29°C° 0 mm 4 m/s 766 mmHg 40%
    14:00 +29°C° 0 mm 4 m/s 766 mmHg 40%
    15:00 +29°C° 0 mm 4 m/s 766 mmHg 40%
    16:00 +29°C° 0 mm 4 m/s 766 mmHg 40%
    17:00 +27°C° 0 mm 4 m/s 766 mmHg 46%
    18:00 +25°C° 0 mm 4 m/s 766 mmHg 53%
    19:00 +22°C° 0 mm 4 m/s 766 mmHg 60%
    20:00 +21°C° 0 mm 3 m/s 766 mmHg 65%
    21:00 +20°C° 0 mm 3 m/s 766 mmHg 71%
    22:00 +19°C° 0 mm 3 m/s 766 mmHg 76%
    23:00 +18°C° 0 mm 3 m/s 766 mmHg 75%

    Poimâine, 26 August, Luni

    Timp Temperatura Precipitaţii Vânt Presiune Umiditate
    00:00 +18°C° 0 mm 3 m/s 766 mmHg 74%
    01:00 +18°C° 0 mm 3 m/s 766 mmHg 72%
    02:00 +17°C° 0 mm 3 m/s 766 mmHg 73%
    03:00 +17°C° 0 mm 3 m/s 765 mmHg 74%
    04:00 +17°C° 0 mm 3 m/s 765 mmHg 74%
    05:00 +18°C° 0 mm 3 m/s 765 mmHg 72%
    06:00 +19°C° 0 mm 3 m/s 765 mmHg 70%
    07:00 +20°C° 0 mm 3 m/s 765 mmHg 68%
    08:00 +22°C° 0 mm 3 m/s 765 mmHg 63%
    09:00 +25°C° 0 mm 3 m/s 765 mmHg 58%
    10:00 +27°C° 0 mm 3 m/s 765 mmHg 53%
    11:00 +28°C° 0 mm 3 m/s 765 mmHg 50%
    12:00 +29°C° 0 mm 4 m/s 765 mmHg 48%
    13:00 +29°C° 0 mm 4 m/s 765 mmHg 45%
    14:00 +29°C° 0 mm 4 m/s 765 mmHg 45%
    15:00 +29°C° 0 mm 4 m/s 764 mmHg 45%
    16:00 +30°C° 0 mm 4 m/s 764 mmHg 45%
    17:00 +28°C° 0 mm 4 m/s 764 mmHg 51%
    18:00 +26°C° 0 mm 4 m/s 764 mmHg 57%
    19:00 +23°C° 0 mm 4 m/s 764 mmHg 63%
    20:00 +22°C° 0 mm 4 m/s 764 mmHg 66%
    21:00 +22°C° 0 mm 4 m/s 764 mmHg 68%
    22:00 +21°C° 0 mm 4 m/s 764 mmHg 70%
    23:00 +20°C° 0 mm 3 m/s 764 mmHg 72%

    27 August, Marţi

    Timp Temperatura Precipitaţii Vânt Presiune Umiditate
    00:00 +20°C° 0 mm 3 m/s 764 mmHg 75%
    01:00 +20°C° 0 mm 3 m/s 764 mmHg 77%
    02:00 +20°C° 0 mm 3 m/s 764 mmHg 78%
    03:00 +19°C° 0 mm 3 m/s 764 mmHg 79%
    04:00 +19°C° 0 mm 3 m/s 764 mmHg 80%
    05:00 +20°C° 0 mm 3 m/s 764 mmHg 76%
    06:00 +21°C° 0 mm 3 m/s 764 mmHg 73%
    07:00 +22°C° 0 mm 3 m/s 764 mmHg 70%
    08:00 +25°C° 0 mm 4 m/s 764 mmHg 64%
    09:00 +27°C° 0 mm 4 m/s 764 mmHg 58%
    10:00 +29°C° 0 mm 4 m/s 764 mmHg 52%
    11:00 +30°C° 0 mm 4 m/s 764 mmHg 50%
    12:00 +32°C° 0 mm 4 m/s 764 mmHg 47%
    13:00 +32°C° 0 mm 4 m/s 764 mmHg 45%
    14:00 +32°C° 0 mm 4 m/s 763 mmHg 44%
    15:00 +32°C° 0 mm 4 m/s 763 mmHg 44%
    16:00 +33°C° 0 mm 4 m/s 763 mmHg 44%
    17:00 +30°C° 0 mm 4 m/s 763 mmHg 50%
    18:00 +28°C° 0 mm 4 m/s 763 mmHg 55%
    19:00 +26°C° 0 mm 4 m/s 762 mmHg 61%
    20:00 +26°C° 0 mm 4 m/s 763 mmHg 63%
    21:00 +25°C° 0 mm 4 m/s 763 mmHg 65%
    22:00 +25°C° 0 mm 5 m/s 763 mmHg 66%
    23:00 +23°C° 0 mm 5 m/s 763 mmHg 67%

    28 August, Miercuri

    Timp Temperatura Precipitaţii Vânt Presiune Umiditate
    00:00 +23°C° 0 mm 5 m/s 762 mmHg 67%
    01:00 +23°C° 0 mm 5 m/s 762 mmHg 68%
    02:00 +22°C° 0 mm 5 m/s 762 mmHg 68%
    03:00 +22°C° 0 mm 5 m/s 762 mmHg 68%
    04:00 +22°C° 0 mm 5 m/s 762 mmHg 69%
    05:00 +22°C° 0 mm 5 m/s 762 mmHg 68%
    06:00 +23°C° 0 mm 5 m/s 762 mmHg 68%
    07:00 +23°C° 0 mm 5 m/s 762 mmHg 67%
    08:00 +26°C° 0 mm 5 m/s 762 mmHg 61%
    09:00 +28°C° 0 mm 5 m/s 762 mmHg 56%
    10:00 +29°C° 0 mm 6 m/s 762 mmHg 50%
    11:00 +30°C° 0 mm 5 m/s 762 mmHg 48%
    12:00 +32°C° 0 mm 5 m/s 761 mmHg 46%
    13:00 +33°C° 0 mm 5 m/s 761 mmHg 43%
    14:00 +33°C° 0.1 mm 5 m/s 761 mmHg 44%
    15:00 +33°C° 0.1 mm 4 m/s 760 mmHg 44%
    16:00 +33°C° 0.1 mm 4 m/s 760 mmHg 44%
    17:00 +30°C° 0.2 mm 4 m/s 760 mmHg 50%
    18:00 +29°C° 0.2 mm 4 m/s 759 mmHg 55%
    19:00 +27°C° 0.2 mm 4 m/s 759 mmHg 61%
    20:00 +26°C° 0.6 mm 4 m/s 759 mmHg 65%
    21:00 +25°C° 0.6 mm 4 m/s 759 mmHg 70%
    22:00 +23°C° 0.6 mm 4 m/s 759 mmHg 74%
    23:00 +23°C° 0.1 mm 4 m/s 759 mmHg 75%

    29 August, Joi

    Timp Temperatura Precipitaţii Vânt Presiune Umiditate
    00:00 +23°C° 0.1 mm 4 m/s 759 mmHg 75%
    01:00 +22°C° 0.1 mm 4 m/s 759 mmHg 75%
    02:00 +22°C° 0 mm 4 m/s 759 mmHg 77%
    03:00 +22°C° 0 mm 3 m/s 759 mmHg 80%
    04:00 +22°C° 0 mm 3 m/s 759 mmHg 82%
    05:00 +22°C° 0.1 mm 3 m/s 759 mmHg 81%
    06:00 +22°C° 0.1 mm 3 m/s 759 mmHg 81%
    07:00 +24°C° 0.1 mm 3 m/s 759 mmHg 81%
    08:00 +25°C° 0.1 mm 3 m/s 759 mmHg 76%
    09:00 +27°C° 0.1 mm 2 m/s 759 mmHg 70%
    10:00 +28°C° 0.1 mm 2 m/s 759 mmHg 65%
    11:00 +29°C° 0.2 mm 2 m/s 759 mmHg 61%
    12:00 +30°C° 0.2 mm 2 m/s 759 mmHg 57%
    13:00 +31°C° 0.2 mm 2 m/s 759 mmHg 53%
    14:00 +30°C° 0.8 mm 2 m/s 759 mmHg 58%
    15:00 +29°C° 0.8 mm 2 m/s 759 mmHg 64%
    16:00 +28°C° 0.8 mm 2 m/s 759 mmHg 69%
    17:00 +27°C° 0.9 mm 2 m/s 759 mmHg 75%
    18:00 +25°C° 0.9 mm 2 m/s 759 mmHg 82%
    19:00 +23°C° 0.9 mm 1 m/s 759 mmHg 88%
    20:00 +23°C° 0.1 mm 1 m/s 759 mmHg 89%
    21:00 +23°C° 0.1 mm 1 m/s 759 mmHg 90%
    22:00 +22°C° 0.1 mm 1 m/s 760 mmHg 91%
    23:00 +22°C° 0.2 mm 1 m/s 760 mmHg 92%
    Arată mai mult